Weather History for Concord, NH

Change the Weather History Date:

Wednesday, December 18, 2013

  Actual Average Record
Temperature  
Mean Temperature 21 °F 26 °F  
Max Temperature 31 °F 35 °F 59 °F (1928)
Min Temperature 10 °F 16 °F -10 °F (1969)
Degree Days  
Heating Degree Days 44 39  
Month to date heating degree days 762 647  
Since 1 July heating degree days 2279 2207  
Cooling Degree Days 0 0  
Month to date cooling degree days 0 0  
Year to date cooling degree days 537 452  
Moisture  
Dew Point 14 °F    
Average Humidity 73    
Maximum Humidity 92    
Minimum Humidity 53    
Precipitation  
Precipitation 0.00 in 0.10 in 1.30 in (1915)
Month to date precipitation 1.75 1.94  
Year to date precipitation 39.15 39.35  
Snow  
Snow 0.00 in 0.50 in 16.00 in (1876)
Month to date snowfall 17.2 7.7  
Since 1 July snowfall 17.4 10.3  
Snow Depth 12.00 in    
Sea Level Pressure  
Sea Level Pressure 29.96 in    
Wind  
Wind Speed 6 mph (NW)    
Max Wind Speed 18 mph    
Max Gust Speed 23 mph    
Visibility 10 miles    
Events      
T = Trace of Precipitation, MM = Missing Value Source: NWS Daily Summary

Daily Weather History Graph

Daily Weather History Graph

Search for Another Location

Airport:

Trip Planner

Search our weather history database for the weather conditions in past years. The results will help you decide how hot, cold, wet, or windy it might be!

Date:

Astronomy

Dec. 18, 2013 Rise Set
Actual Time 7:13 AM EST 4:12 PM EST
Civil Twilight 6:40 AM EST 4:44 PM EST
Nautical Twilight 6:04 AM EST 5:20 PM EST
Astronomical Twilight 5:29 AM EST 5:55 PM EST
Moon 5:44 PM EST (12/18) 7:48 AM EST (12/18)
Length of Visible Light 10h 04m
Length of Day
8h 59m
Full, 98% of the Moon is Illuminated
Dec 18
Full
Dec 25
Last Quarter
Jan 1
New
Jan 7
First Quarter
Jan 15
Full

Hourly Weather History & Observations

Time (EST) Temp. Windchill Dew Point Humidity Pressure Visibility Wind Dir Wind Speed Gust Speed Precip Events Conditions
12:51 AM 12.9 °F 2.6 °F 9.0 °F 84% 29.99 in 10.0 mi NW 6.9 mph - N/A   Overcast
1:39 AM 12.9 °F 3.8 °F 9.0 °F 84% 29.94 in 10.0 mi North 5.8 mph - N/A   Overcast
1:51 AM 12.9 °F 3.8 °F 10.0 °F 88% 29.96 in 10.0 mi North 5.8 mph - N/A   Overcast
2:51 AM 15.1 °F 5.2 °F 10.9 °F 84% 29.95 in 10.0 mi NNW 6.9 mph - N/A   Overcast
3:03 AM 15.1 °F 4.2 °F 10.9 °F 84% 29.93 in 10.0 mi NNW 8.1 mph - N/A   Overcast
3:51 AM 16.0 °F 6.3 °F 12.0 °F 84% 29.94 in 10.0 mi NNW 6.9 mph - N/A   Overcast
4:51 AM 17.1 °F 5.8 °F 12.9 °F 84% 29.95 in 10.0 mi NW 9.2 mph - N/A   Overcast
5:51 AM 18.0 °F 11.1 °F 14.0 °F 84% 29.95 in 10.0 mi NNW 4.6 mph - N/A   Overcast
6:51 AM 18.0 °F 9.8 °F 14.0 °F 84% 29.96 in 10.0 mi NW 5.8 mph - N/A   Overcast
7:51 AM 16.0 °F 8.8 °F 12.9 °F 88% 29.95 in 10.0 mi NW 4.6 mph - N/A   Clear
8:51 AM 16.0 °F 7.4 °F 12.0 °F 84% 29.94 in 10.0 mi NW 5.8 mph - N/A   Clear
9:51 AM 21.0 °F 13.4 °F 14.0 °F 74% 29.93 in 10.0 mi NW 5.8 mph - N/A   Clear
10:51 AM 25.0 °F 17.1 °F 16.0 °F 69% 29.91 in 10.0 mi NW 6.9 mph - N/A   Clear
11:51 AM 28.0 °F 17.5 °F 16.0 °F 61% 29.90 in 10.0 mi NW 12.7 mph - N/A   Clear
12:51 PM 28.9 °F 18.6 °F 16.0 °F 58% 29.91 in 10.0 mi NW 12.7 mph - N/A   Clear
1:51 PM 30.9 °F 24.3 °F 16.0 °F 54% 29.91 in 10.0 mi NW 6.9 mph - N/A   Partly Cloudy
2:51 PM 30.0 °F 23.2 °F 17.1 °F 59% 29.92 in 10.0 mi West 6.9 mph - N/A   Clear
3:51 PM 28.9 °F 21.9 °F 16.0 °F 58% 29.94 in 10.0 mi WNW 6.9 mph - N/A   Partly Cloudy
4:51 PM 27.0 °F 21.6 °F 16.0 °F 63% 29.96 in 10.0 mi WNW 4.6 mph - N/A   Clear
5:51 PM 26.1 °F 18.4 °F 17.1 °F 69% 29.98 in 10.0 mi West 6.9 mph - N/A   Mostly Cloudy
6:51 PM 19.0 °F - 15.1 °F 85% 30.01 in 10.0 mi Calm Calm - N/A   Partly Cloudy
7:51 PM 23.0 °F 17.0 °F 16.0 °F 74% 30.02 in 10.0 mi West 4.6 mph - N/A   Clear
8:51 PM 12.9 °F - 10.9 °F 92% 30.03 in 8.0 mi Calm Calm - N/A   Clear
9:51 PM 12.0 °F 5.9 °F 10.0 °F 92% 30.02 in 9.0 mi SE 3.5 mph - N/A   Overcast
10:51 PM 25.0 °F 18.1 °F 18.0 °F 75% 30.03 in 10.0 mi SSW 5.8 mph - N/A   Overcast
11:51 PM 26.1 °F 17.6 °F 19.0 °F 75% 30.03 in 10.0 mi SW 8.1 mph - N/A   Overcast